Weather History for Christchurch, New Zealand

Change the Weather History Date:

Friday, January 24, 2014

  Actual Average Record
Temperature  
Mean Temperature 52 °F -  
Max Temperature 66 °F 69 °F - ()
Min Temperature 39 °F 51 °F - ()
Degree Days  
Heating Degree Days 12    
Growing Degree Days 2 (Base 50)    
Moisture  
Dew Point 47 °F    
Average Humidity 75    
Maximum Humidity 100    
Minimum Humidity 56    
Precipitation  
Precipitation 0.00 in - - ()
Sea Level Pressure  
Sea Level Pressure 29.96 in    
Wind  
Wind Speed 7 mph ()    
Max Wind Speed 20 mph    
Max Gust Speed -    
Visibility 6.2 miles    
Events      
T = Trace of Precipitation, MM = Missing Value Source: Averaged Metar Reports

Daily Weather History Graph

Daily Weather History Graph

Search for Another Location

Airport:

Trip Planner

Search our weather history database for the weather conditions in past years. The results will help you decide how hot, cold, wet, or windy it might be!

Date:

Astronomy

Jan. 24, 2014 Rise Set
Actual Time 6:18 AM NZDT 9:04 PM NZDT
Civil Twilight 5:45 AM NZDT 9:37 PM NZDT
Nautical Twilight 5:03 AM NZDT 10:19 PM NZDT
Astronomical Twilight 4:14 AM NZDT 11:07 PM NZDT
Moon 12:09 AM NZDT (1/24) 2:01 PM NZDT (1/24)
Length of Visible Light 15h 51m
Length of Day
14h 45m
Waning Gibbous, 53% of the Moon is Illuminated
Jan 24
Waning Gibbous
Jan 24
Last Quarter
Jan 31
New
Feb 7
First Quarter
Feb 15
Full

Hourly Weather History & Observations

Time (NZDT) Temp. Windchill Dew Point Humidity Pressure Visibility Wind Dir Wind Speed Gust Speed Precip Events Conditions
12:00 AM 46.4 °F - 42.8 °F 87% 29.77 in 6.2 mi WNW 1.2 mph - N/A   Unknown
12:30 AM 48.2 °F - 44.6 °F 87% 29.80 in 6.2 mi West 3.5 mph - N/A   Unknown
1:00 AM 46.4 °F 44.3 °F 42.8 °F 87% 29.80 in 6.2 mi West 4.6 mph - N/A   Unknown
1:30 AM 46.4 °F 44.3 °F 42.8 °F 87% 29.83 in 6.2 mi West 4.6 mph - N/A   Unknown
2:00 AM 44.6 °F 42.2 °F 41.0 °F 87% 29.83 in 6.2 mi WSW 4.6 mph - N/A   Unknown
2:30 AM 44.6 °F 43.1 °F 42.8 °F 93% 29.83 in 6.2 mi WSW 3.5 mph - N/A   Unknown
3:00 AM 46.4 °F - 42.8 °F 87% 29.83 in 6.2 mi West 2.3 mph - N/A   Unknown
3:30 AM 42.8 °F 41.1 °F 41.0 °F 93% 29.86 in 6.2 mi West 3.5 mph - N/A   Unknown
4:00 AM 42.8 °F - 39.2 °F 87% 29.83 in 6.2 mi SSE 1.2 mph - N/A   Unknown
4:30 AM 41.0 °F - 39.2 °F 93% 29.86 in 6.2 mi North 1.2 mph - N/A   Unknown
5:00 AM 41.0 °F - 39.2 °F 93% 29.86 in 6.2 mi WNW 2.3 mph - N/A   Unknown
5:30 AM 41.0 °F - 39.2 °F 93% 29.86 in 6.2 mi NW 2.3 mph - N/A   Unknown
6:00 AM 41.0 °F 39.0 °F 39.2 °F 93% 29.89 in 6.2 mi NW 3.5 mph - N/A   Unknown
6:30 AM 39.2 °F - 39.2 °F 100% 29.89 in 6.2 mi NW 2.3 mph - N/A   Unknown
7:00 AM 41.0 °F - 39.2 °F 93% 29.92 in 6.2 mi WNW 1.2 mph - N/A   Unknown
7:30 AM 44.6 °F - 42.8 °F 93% 29.92 in 6.2 mi NNW 1.2 mph - N/A   Unknown
8:00 AM 46.4 °F - 46.4 °F 100% 29.92 in 6.2 mi NE 1.2 mph - N/A   Unknown
8:30 AM 53.6 °F - 50.0 °F 88% 29.95 in 6.2 mi NE 3.5 mph - N/A   Unknown
9:00 AM 59.0 °F - 51.8 °F 77% 29.95 in 6.2 mi ENE 11.5 mph - N/A   Unknown
9:30 AM 60.8 °F - 50.0 °F 68% 29.95 in 6.2 mi ENE 13.8 mph - N/A   Unknown
10:00 AM 62.6 °F - 50.0 °F 63% 29.95 in 6.2 mi ENE 13.8 mph - N/A   Unknown
10:30 AM 62.6 °F - 50.0 °F 63% 29.95 in 6.2 mi East 12.7 mph - N/A   Unknown
11:00 AM 62.6 °F - 48.2 °F 59% 29.98 in 6.2 mi ENE 12.7 mph - N/A   Unknown
11:30 AM 64.4 °F - 50.0 °F 59% 29.98 in 6.2 mi ENE 11.5 mph - N/A   Unknown
12:00 PM 64.4 °F - 50.0 °F 59% 29.98 in 6.2 mi East 12.7 mph - N/A   Unknown
12:30 PM 64.4 °F - 50.0 °F 59% 29.98 in 6.2 mi East 15.0 mph - N/A   Unknown
1:00 PM 64.4 °F - 50.0 °F 59% 29.98 in 6.2 mi East 13.8 mph - N/A   Unknown
1:30 PM 66.2 °F - 50.0 °F 56% 29.98 in 6.2 mi ENE 13.8 mph - N/A   Unknown
2:00 PM 66.2 °F - 51.8 °F 60% 30.01 in 6.2 mi East 16.1 mph - N/A   Unknown
2:30 PM 64.4 °F - 50.0 °F 59% 30.01 in 6.2 mi East 19.6 mph - N/A   Unknown
3:00 PM 64.4 °F - 50.0 °F 59% 30.01 in 6.2 mi East 18.4 mph - N/A   Partly Cloudy
3:30 PM 62.6 °F - 50.0 °F 63% 30.01 in 6.2 mi East 17.3 mph - N/A   Scattered Clouds
4:00 PM 64.4 °F - 50.0 °F 59% 30.01 in 6.2 mi ENE 18.4 mph - N/A   Partly Cloudy
4:30 PM 64.4 °F - 50.0 °F 59% 30.04 in 6.2 mi ENE 18.4 mph - N/A   Scattered Clouds
5:00 PM 62.6 °F - 48.2 °F 59% 30.04 in 6.2 mi ENE 18.4 mph - N/A   Scattered Clouds
5:30 PM 62.6 °F - 50.0 °F 63% 30.04 in 6.2 mi ENE 17.3 mph - N/A   Mostly Cloudy
6:00 PM 60.8 °F - 48.2 °F 63% 30.04 in 6.2 mi ENE 15.0 mph - N/A   Mostly Cloudy
6:30 PM 60.8 °F - 50.0 °F 68% 30.04 in 6.2 mi ENE 16.1 mph - N/A   Mostly Cloudy
7:00 PM 59.0 °F - 48.2 °F 67% 30.04 in 6.2 mi East 16.1 mph - N/A   Overcast
7:30 PM 59.0 °F - 48.2 °F 67% 30.06 in 6.2 mi ENE 16.1 mph - N/A   Overcast
8:00 PM 57.2 °F - 48.2 °F 72% 30.06 in 6.2 mi ENE 15.0 mph - N/A   Overcast
8:30 PM 57.2 °F - 48.2 °F 72% 30.06 in 6.2 mi ENE 13.8 mph - N/A   Overcast
9:00 PM 57.2 °F - 48.2 °F 72% 30.06 in 6.2 mi East 15.0 mph - N/A   Overcast
9:30 PM 57.2 °F - 48.2 °F 72% 30.09 in 6.2 mi ENE 15.0 mph - N/A   Overcast
10:00 PM 57.2 °F - 48.2 °F 72% 30.09 in 6.2 mi East 16.1 mph - N/A   Overcast
10:30 PM 57.2 °F - 48.2 °F 72% 30.12 in 6.2 mi ENE 17.3 mph - N/A   Overcast
11:00 PM 55.4 °F - 48.2 °F 77% 30.12 in 6.2 mi ENE 16.1 mph - N/A   Overcast
11:30 PM 55.4 °F - 48.2 °F 77% 30.12 in 6.2 mi ENE 15.0 mph - N/A   Overcast